Location: Buckland
(65.9785°N, 161.1281°W)
Time: 21:08:34
(UTC+00:00)

SPROUT - Pass Details

Date: 23 January 2021
Orbit: 597 x 610 km, 97.9° (Epoch: 07 March)

Event Time Altitude Azimuth Distance (km) Brightness Sun altitude
Exits shadow 03:15:30 - 21° (NNE) 2,492 ? -8.0°
Reaches altitude 10° 03:17:10 10° 8° (N) 1,980 ? -8.2°
Maximum altitude 03:19:57 17° 327° (NNW) 1,562 ? -8.4°
Drops below altitude 10° 03:22:44 10° 287° (WNW) 1,979 ? -8.7°
Sets 03:25:32 0° 267° (W) 2,882 ? -8.9°
